| time (UTC) | temp C | wind direction | speed KPH | gust KPH | rain 1hr cm | rain 24hr cm | rain mn cm | humidity % | barometer mb |
| 20260507032504 | 6 | 333 | 0.0 | 0.0 | 0.00 | 1.02 | 1.02 | 86 | 1015.0 |
| 20260507032005 | 6 | 333 | 0.0 | 0.0 | 0.00 | 1.02 | 1.02 | 86 | 1015.0 |
| 20260507031515 | 6 | 333 | 0.0 | 0.0 | 0.00 | 1.02 | 1.02 | 86 | 1015.0 |
| 20260507031003 | 6 | 333 | 0.0 | 0.0 | 0.00 | 1.02 | 1.02 | 85 | 1015.0 |
| 20260507030504 | 6 | 333 | 0.0 | 0.0 | 0.00 | 1.04 | 1.02 | 85 | 1015.1 |
| 20260507030009 | 6 | 333 | 0.0 | 0.0 | 0.00 | 1.04 | 1.02 | 84 | 1015.1 |
| 20260507025508 | 6 | 333 | 0.0 | 0.0 | 0.00 | 1.04 | 1.02 | 84 | 1015.2 |
| 20260507025005 | 6 | 333 | 0.0 | 0.0 | 0.00 | 1.04 | 1.02 | 83 | 1015.2 |
| 20260507024516 | 6 | 333 | 0.0 | 0.0 | 0.00 | 1.07 | 1.02 | 83 | 1015.2 |
| 20260507024006 | 6 | 333 | 0.0 | 0.0 | 0.00 | 1.07 | 1.02 | 83 | 1015.2 |
| 20260507023504 | 6 | 333 | 0.0 | 0.0 | 0.00 | 1.09 | 1.02 | 82 | 1015.3 |
| 20260507023014 | 6 | 333 | 0.0 | 0.0 | 0.00 | 1.09 | 1.02 | 81 | 1015.2 |
| 20260507022504 | 7 | 333 | 0.0 | 0.0 | 0.00 | 1.12 | 1.02 | 81 | 1015.2 |
| 20260507022005 | 7 | 333 | 0.0 | 0.0 | 0.00 | 1.14 | 1.02 | 80 | 1015.1 |
| 20260507021504 | 7 | 333 | 0.0 | 0.0 | 0.00 | 1.17 | 1.02 | 79 | 1015.1 |
| 20260507021003 | 7 | 333 | 0.0 | 0.0 | 0.00 | 1.19 | 1.02 | 79 | 1015.1 |
| 20260507020503 | 7 | 333 | 0.0 | 0.0 | 0.00 | 1.22 | 1.02 | 79 | 1014.9 |
| 20260507020009 | 8 | 333 | 0.0 | 0.0 | 0.00 | 1.24 | 1.02 | 78 | 1014.7 |
| 20260507015506 | 8 | 333 | 0.0 | 0.0 | 0.00 | 1.27 | 1.02 | 77 | 1014.7 |
| 20260507015004 | 8 | 333 | 0.0 | 0.0 | 0.00 | 1.27 | 1.02 | 77 | 1014.6 |
| 20260507014523 | 8 | 333 | 0.0 | 0.0 | 0.00 | 1.30 | 1.02 | 76 | 1014.5 |
| 20260507014004 | 8 | 333 | 0.0 | 0.0 | 0.00 | 1.32 | 1.02 | 76 | 1014.6 |
| 20260507013502 | 9 | 333 | 0.0 | 0.0 | 0.00 | 1.32 | 1.02 | 75 | 1014.6 |
| 20260507013033 | 9 | 325 | 0.0 | 0.0 | 0.00 | 1.42 | 1.02 | 75 | 1014.5 |
| 20260507012505 | 9 | 325 | 0.0 | 0.0 | 0.00 | 1.45 | 1.02 | 74 | 1014.4 |
| 20260507012004 | 10 | 325 | 0.0 | 0.0 | 0.00 | 1.47 | 1.02 | 73 | 1014.4 |
| 20260507011531 | 10 | 325 | 0.0 | 0.0 | 0.00 | 1.47 | 1.02 | 73 | 1014.4 |
| 20260507011004 | 10 | 325 | 0.0 | 0.0 | 0.00 | 1.57 | 1.02 | 73 | 1014.5 |
| 20260507010503 | 10 | 325 | 0.0 | 0.0 | 0.00 | 1.63 | 1.02 | 72 | 1014.4 |
| 20260507010005 | 10 | 325 | 0.0 | 0.0 | 0.00 | 1.65 | 1.02 | 71 | 1014.4 |
| 20260507005502 | 11 | 325 | 0.0 | 0.0 | 0.00 | 1.68 | 1.02 | 71 | 1014.3 |
| 20260507005002 | 11 | 325 | 0.0 | 0.0 | 0.00 | 1.68 | 1.02 | 68 | 1014.3 |
| 20260507004513 | 11 | 325 | 0.0 | 0.0 | 0.00 | 1.70 | 1.02 | 67 | 1014.2 |
| 20260507004003 | 11 | 325 | 0.0 | 0.0 | 0.00 | 1.73 | 1.02 | 67 | 1014.0 |
| 20260507003504 | 11 | 325 | 0.0 | 0.0 | 0.00 | 1.75 | 1.02 | 64 | 1013.8 |
| 20260507003016 | 11 | 325 | 0.0 | 0.0 | 0.00 | 1.78 | 1.02 | 65 | 1013.8 |
| 20260507002506 | 11 | 325 | 0.0 | 0.0 | 0.00 | 1.80 | 1.02 | 62 | 1013.8 |
| 20260507002010 | 12 | 325 | 0.0 | 1.6 | 0.00 | 1.83 | 1.02 | 58 | 1013.8 |
| 20260507001519 | 12 | 302 | 0.0 | 3.2 | 0.00 | 1.85 | 1.02 | 58 | 1013.8 |
| 20260507001004 | 12 | 302 | 0.0 | 3.2 | 0.00 | 1.88 | 1.02 | 57 | 1013.7 |
| 20260507000506 | 12 | 279 | 0.0 | 3.2 | 0.00 | 1.88 | 1.02 | 57 | 1013.7 |
| 20260507000027 | 12 | 279 | 0.0 | 3.2 | 0.00 | 1.91 | 1.02 | 56 | 1013.8 |
| 20260506235504 | 12 | 281 | 0.0 | 3.2 | 0.00 | 1.93 | 1.02 | 56 | 1013.7 |
| 20260506235006 | 12 | 294 | 0.0 | 3.2 | 0.00 | 1.96 | 1.02 | 55 | 1013.7 |
| 20260506234506 | 12 | 321 | 0.0 | 3.2 | 0.00 | 1.96 | 1.02 | 55 | 1013.6 |
| 20260506234006 | 12 | 308 | 0.0 | 3.2 | 0.00 | 1.98 | 1.02 | 54 | 1013.6 |
| 20260506233503 | 12 | 334 | 0.0 | 3.2 | 0.00 | 2.01 | 1.02 | 55 | 1013.5 |
| 20260506233011 | 12 | 302 | 1.6 | 4.8 | 0.00 | 2.01 | 1.02 | 53 | 1013.6 |
| 20260506232503 | 13 | 320 | 0.0 | 4.8 | 0.00 | 2.01 | 1.02 | 55 | 1013.7 |
| 20260506232007 | 13 | 290 | 1.6 | 4.8 | 0.00 | 2.03 | 1.02 | 55 | 1013.7 |
| 20260506231515 | 13 | 269 | 0.0 | 6.4 | 0.00 | 2.03 | 1.02 | 53 | 1013.6 |
| 20260506231003 | 13 | 5 | 1.6 | 6.4 | 0.00 | 2.03 | 1.02 | 54 | 1013.7 |
| 20260506230509 | 13 | 333 | 0.0 | 6.4 | 0.00 | 2.06 | 1.02 | 55 | 1013.7 |
| 20260506230018 | 13 | 352 | 1.6 | 3.2 | 0.00 | 2.08 | 1.02 | 55 | 1013.7 |
| 20260506225512 | 13 | 271 | 1.6 | 4.8 | 0.00 | 2.11 | 1.02 | 56 | 1013.8 |
| 20260506225004 | 12 | 246 | 1.6 | 4.8 | 0.00 | 2.13 | 1.02 | 56 | 1013.9 |
| 20260506224522 | 12 | 284 | 1.6 | 4.8 | 0.00 | 2.16 | 1.02 | 56 | 1014.0 |
| 20260506224004 | 12 | 319 | 0.0 | 3.2 | 0.00 | 2.18 | 1.02 | 55 | 1013.9 |
| 20260506223503 | 12 | 296 | 0.0 | 4.8 | 0.00 | 2.21 | 1.02 | 55 | 1014.0 |
| 20260506223008 | 12 | 288 | 1.6 | 4.8 | 0.00 | 2.24 | 1.02 | 54 | 1014.0 |
| 20260506222506 | 12 | 263 | 1.6 | 4.8 | 0.00 | 2.26 | 1.02 | 55 | 1014.1 |
| 20260506222004 | 12 | 291 | 0.0 | 9.7 | 0.00 | 2.29 | 1.02 | 54 | 1014.1 |
| 20260506221517 | 12 | 304 | 1.6 | 9.7 | 0.00 | 2.29 | 1.02 | 53 | 1014.1 |
| 20260506221009 | 12 | 266 | 1.6 | 8.0 | 0.00 | 2.31 | 1.02 | 53 | 1014.1 |
| 20260506220506 | 13 | 5 | 1.6 | 8.0 | 0.00 | 2.39 | 1.02 | 52 | 1014.1 |
| 20260506220020 | 13 | 294 | 3.2 | 8.0 | 0.00 | 2.39 | 1.02 | 51 | 1014.1 |
| 20260506215508 | 13 | 352 | 1.6 | 9.7 | 0.00 | 2.39 | 1.02 | 52 | 1014.1 |
| 20260506215007 | 13 | 301 | 1.6 | 11.3 | 0.00 | 2.39 | 1.02 | 53 | 1014.0 |
| 20260506214520 | 13 | 287 | 1.6 | 11.3 | 0.00 | 2.39 | 1.02 | 53 | 1013.9 |
| 20260506214008 | 13 | 291 | 1.6 | 8.0 | 0.00 | 2.39 | 1.02 | 52 | 1013.8 |
| 20260506213507 | 13 | 39 | 1.6 | 6.4 | 0.00 | 2.39 | 1.02 | 52 | 1013.8 |
| 20260506213012 | 13 | 325 | 1.6 | 12.9 | 0.00 | 2.39 | 1.02 | 51 | 1013.8 |
| 20260506212506 | 13 | 360 | 3.2 | 12.9 | 0.00 | 2.39 | 1.02 | 52 | 1013.7 |
| 20260506212006 | 13 | 323 | 1.6 | 6.4 | 0.00 | 2.39 | 1.02 | 53 | 1013.6 |
| 20260506211512 | 13 | 303 | 1.6 | 6.4 | 0.00 | 2.39 | 1.02 | 55 | 1013.6 |
| 20260506211003 | 13 | 250 | 1.6 | 6.4 | 0.00 | 2.41 | 1.02 | 56 | 1013.5 |
| 20260506210505 | 13 | 306 | 1.6 | 12.9 | 0.00 | 2.41 | 1.02 | 55 | 1013.6 |
| 20260506210023 | 13 | 272 | 1.6 | 12.9 | 0.00 | 2.44 | 1.02 | 54 | 1013.5 |
| 20260506205507 | 13 | 294 | 1.6 | 9.7 | 0.00 | 2.44 | 1.02 | 53 | 1013.4 |
| 20260506205010 | 13 | 275 | 3.2 | 11.3 | 0.00 | 2.44 | 1.02 | 54 | 1013.5 |
| 20260506204524 | 13 | 267 | 3.2 | 11.3 | 0.00 | 2.46 | 1.02 | 52 | 1013.5 |
| 20260506204006 | 13 | 281 | 1.6 | 12.9 | 0.00 | 2.46 | 1.02 | 55 | 1013.5 |
| 20260506203507 | 13 | 13 | 3.2 | 12.9 | 0.00 | 2.49 | 1.02 | 51 | 1013.6 |
| 20260506203023 | 13 | 252 | 3.2 | 12.9 | 0.00 | 2.51 | 1.02 | 52 | 1013.6 |
| 20260506202507 | 13 | 253 | 1.6 | 9.7 | 0.00 | 2.54 | 1.02 | 54 | 1013.5 |
| 20260506202008 | 13 | 269 | 3.2 | 9.7 | 0.00 | 2.57 | 1.02 | 52 | 1013.5 |
| 20260506201510 | 13 | 284 | 3.2 | 11.3 | 0.00 | 2.57 | 1.02 | 52 | 1013.5 |
| 20260506201007 | 13 | 360 | 3.2 | 11.3 | 0.00 | 2.62 | 1.02 | 52 | 1013.5 |
| 20260506200505 | 13 | 252 | 3.2 | 11.3 | 0.00 | 2.67 | 1.02 | 53 | 1013.4 |
| 20260506200016 | 13 | 279 | 3.2 | 9.7 | 0.00 | 2.74 | 1.02 | 53 | 1013.4 |
| 20260506195506 | 13 | 275 | 0.0 | 14.5 | 0.00 | 2.79 | 1.02 | 57 | 1013.4 |
| 20260506195009 | 13 | 278 | 4.8 | 14.5 | 0.00 | 2.79 | 1.02 | 55 | 1013.3 |
| 20260506194520 | 13 | 336 | 1.6 | 12.9 | 0.00 | 2.79 | 1.02 | 55 | 1013.2 |
| 20260506194009 | 13 | 40 | 3.2 | 9.7 | 0.00 | 2.79 | 1.02 | 55 | 1013.3 |
| 20260506193509 | 13 | 360 | 3.2 | 12.9 | 0.00 | 2.79 | 1.02 | 54 | 1013.2 |
| 20260506193024 | 13 | 311 | 3.2 | 14.5 | 0.00 | 2.79 | 1.02 | 56 | 1013.3 |
| 20260506192507 | 13 | 289 | 4.8 | 14.5 | 0.00 | 2.79 | 1.02 | 54 | 1013.3 |
| 20260506192008 | 13 | 343 | 3.2 | 14.5 | 0.00 | 2.79 | 1.02 | 55 | 1013.4 |
| 20260506191526 | 13 | 296 | 6.4 | 14.5 | 0.00 | 2.79 | 1.02 | 54 | 1013.3 |
| 20260506191003 | 14 | 267 | 4.8 | 9.7 | 0.00 | 2.79 | 1.02 | 55 | 1013.3 |
| 20260506190503 | 14 | 24 | 3.2 | 9.7 | 0.00 | 2.79 | 1.02 | 56 | 1013.2 |
| 20260506190013 | 14 | 5 | 1.6 | 12.9 | 0.00 | 2.79 | 1.02 | 53 | 1013.2 |
| 20260506185503 | 14 | 339 | 6.4 | 14.5 | 0.00 | 2.79 | 1.02 | 52 | 1013.3 |
| 20260506185003 | 14 | 352 | 4.8 | 17.7 | 0.00 | 2.79 | 1.02 | 50 | 1013.1 |
| 20260506184519 | 14 | 340 | 4.8 | 17.7 | 0.00 | 2.79 | 1.02 | 50 | 1013.2 |
| 20260506184007 | 15 | 323 | 11.3 | 17.7 | 0.00 | 2.79 | 1.02 | 50 | 1013.0 |
| 20260506183507 | 15 | 32 | 6.4 | 16.1 | 0.00 | 2.79 | 1.02 | 54 | 1012.8 |
| 20260506183024 | 15 | 27 | 4.8 | 14.5 | 0.00 | 2.79 | 1.02 | 54 | 1012.7 |
| 20260506182506 | 15 | 25 | 4.8 | 12.9 | 0.00 | 2.79 | 1.02 | 52 | 1012.9 |
| 20260506182013 | 15 | 321 | 3.2 | 16.1 | 0.00 | 2.79 | 1.02 | 49 | 1013.1 |
| 20260506181531 | 15 | 30 | 6.4 | 16.1 | 0.00 | 2.79 | 1.02 | 50 | 1013.0 |
| 20260506181012 | 15 | 337 | 4.8 | 16.1 | 0.00 | 2.79 | 1.02 | 56 | 1013.1 |
| 20260506180515 | 14 | 344 | 3.2 | 14.5 | 0.00 | 2.79 | 1.02 | 57 | 1013.3 |
| 20260506180033 | 14 | 38 | 4.8 | 14.5 | 0.00 | 2.79 | 1.02 | 56 | 1013.2 |
| 20260506175503 | 14 | 300 | 1.6 | 12.9 | 0.00 | 2.79 | 1.02 | 56 | 1013.3 |
| 20260506175003 | 13 | 348 | 6.4 | 12.9 | 0.00 | 2.79 | 1.02 | 55 | 1013.3 |
| 20260506174517 | 13 | 294 | 3.2 | 16.1 | 0.00 | 2.79 | 1.02 | 54 | 1013.3 |
| 20260506174009 | 14 | 19 | 6.4 | 16.1 | 0.00 | 2.79 | 1.02 | 55 | 1013.4 |
| 20260506173507 | 14 | 11 | 3.2 | 11.3 | 0.00 | 2.79 | 1.02 | 58 | 1013.4 |
| 20260506173021 | 14 | 261 | 3.2 | 12.9 | 0.00 | 2.79 | 1.02 | 56 | 1013.5 |
| 20260506172507 | 13 | 296 | 3.2 | 12.9 | 0.00 | 2.79 | 1.02 | 56 | 1013.5 |
| 20260506172012 | 13 | 344 | 4.8 | 12.9 | 0.00 | 2.79 | 1.02 | 54 | 1013.4 |
| 20260506171538 | 13 | 347 | 6.4 | 17.7 | 0.00 | 2.79 | 1.02 | 55 | 1013.5 |
| 20260506171008 | 14 | 5 | 9.7 | 17.7 | 0.00 | 2.79 | 1.02 | 54 | 1013.5 |
| 20260506170510 | 14 | 38 | 1.6 | 12.9 | 0.00 | 2.79 | 1.02 | 56 | 1013.6 |
| 20260506170024 | 14 | 267 | 3.2 | 12.9 | 0.00 | 2.79 | 1.02 | 55 | 1013.5 |
| 20260506165511 | 14 | 267 | 3.2 | 12.9 | 0.00 | 2.79 | 1.02 | 55 | 1013.4 |
| 20260506165008 | 14 | 33 | 4.8 | 12.9 | 0.00 | 2.79 | 1.02 | 58 | 1013.3 |
| 20260506164513 | 14 | 352 | 4.8 | 12.9 | 0.00 | 2.79 | 1.02 | 59 | 1013.2 |
| 20260506164007 | 13 | 12 | 4.8 | 14.5 | 0.00 | 2.79 | 1.02 | 59 | 1013.2 |
| 20260506163506 | 13 | 5 | 3.2 | 14.5 | 0.00 | 2.79 | 1.02 | 60 | 1013.1 |
| 20260506163022 | 13 | 5 | 4.8 | 14.5 | 0.00 | 2.79 | 1.02 | 62 | 1013.4 |
| 20260506162508 | 13 | 273 | 1.6 | 12.9 | 0.00 | 2.79 | 1.02 | 61 | 1013.3 |
| 20260506162011 | 13 | 22 | 1.6 | 12.9 | 0.00 | 2.79 | 1.02 | 62 | 1013.4 |
| 20260506161535 | 13 | 277 | 3.2 | 12.9 | 0.00 | 2.79 | 1.02 | 62 | 1013.4 |
| 20260506161005 | 13 | 26 | 4.8 | 11.3 | 0.00 | 2.79 | 1.02 | 61 | 1013.2 |
| 20260506160506 | 13 | 342 | 3.2 | 12.9 | 0.00 | 2.79 | 1.02 | 62 | 1013.3 |
| 20260506160028 | 13 | 242 | 3.2 | 12.9 | 0.00 | 2.79 | 1.02 | 65 | 1013.3 |
| 20260506155515 | 12 | 317 | 4.8 | 14.5 | 0.00 | 2.79 | 1.02 | 66 | 1013.4 |
| 20260506155011 | 12 | 350 | 1.6 | 14.5 | 0.00 | 2.79 | 1.02 | 66 | 1013.5 |
| 20260506154529 | 12 | 19 | 3.2 | 11.3 | 0.00 | 2.79 | 1.02 | 66 | 1013.6 |
| 20260506154011 | 12 | 329 | 3.2 | 12.9 | 0.00 | 2.79 | 1.02 | 67 | 1013.4 |
| 20260506153503 | 12 | 9 | 4.8 | 12.9 | 0.00 | 2.79 | 1.02 | 69 | 1013.4 |
| 20260506153016 | 12 | 346 | 1.6 | 12.9 | 0.00 | 2.79 | 1.02 | 72 | 1013.1 |
| 20260506152506 | 11 | 308 | 1.6 | 9.7 | 0.00 | 2.79 | 1.02 | 74 | 1013.0 |
| 20260506152008 | 11 | 338 | 1.6 | 12.9 | 0.00 | 2.79 | 1.02 | 72 | 1012.7 |
| 20260506151521 | 11 | 352 | 1.6 | 12.9 | 0.00 | 2.79 | 1.02 | 71 | 1012.7 |
| 20260506151006 | 11 | 345 | 4.8 | 12.9 | 0.00 | 2.79 | 1.02 | 71 | 1012.7 |
| 20260506150507 | 10 | 350 | 6.4 | 12.9 | 0.00 | 2.79 | 1.02 | 72 | 1012.6 |
| 20260506150029 | 10 | 9 | 4.8 | 14.5 | 0.00 | 2.79 | 1.02 | 73 | 1012.5 |
| 20260506145508 | 10 | 11 | 3.2 | 14.5 | 0.00 | 2.79 | 1.02 | 73 | 1012.4 |
| 20260506145013 | 10 | 5 | 6.4 | 12.9 | 0.00 | 2.79 | 1.02 | 74 | 1012.5 |
| 20260506144528 | 10 | 352 | 3.2 | 12.9 | 0.00 | 2.79 | 1.02 | 74 | 1012.7 |
| 20260506144010 | 10 | 337 | 1.6 | 14.5 | 0.00 | 2.79 | 1.02 | 75 | 1012.5 |
| 20260506143514 | 10 | 295 | 8.0 | 14.5 | 0.00 | 2.79 | 1.02 | 77 | 1012.3 |
| 20260506143026 | 9 | 40 | 8.0 | 16.1 | 0.00 | 2.79 | 1.02 | 79 | 1012.1 |
| 20260506142507 | 9 | 335 | 6.4 | 14.5 | 0.00 | 2.79 | 1.02 | 81 | 1012.2 |
| 20260506142003 | 9 | 347 | 3.2 | 9.7 | 0.00 | 2.79 | 1.02 | 82 | 1012.3 |
| 20260506141521 | 8 | 342 | 1.6 | 11.3 | 0.00 | 2.79 | 1.02 | 83 | 1012.3 |
| 20260506141006 | 8 | 352 | 4.8 | 11.3 | 0.00 | 2.79 | 1.02 | 84 | 1012.4 |
| 20260506140508 | 8 | 315 | 0.0 | 6.4 | 0.00 | 2.79 | 1.02 | 85 | 1012.6 |
| 20260506140024 | 8 | 43 | 3.2 | 12.9 | 0.00 | 2.79 | 1.02 | 84 | 1012.4 |
| 20260506135506 | 8 | 360 | 6.4 | 12.9 | 0.00 | 2.79 | 1.02 | 84 | 1012.4 |
| 20260506135015 | 8 | 331 | 1.6 | 6.4 | 0.00 | 2.79 | 1.02 | 86 | 1012.4 |
| 20260506134602 | 8 | 323 | 3.2 | 8.0 | 0.00 | 2.79 | 1.02 | 87 | 1012.1 |
| 20260506134011 | 7 | 348 | 3.2 | 11.3 | 0.00 | 2.79 | 1.02 | 87 | 1012.0 |
| 20260506133511 | 7 | 232 | 3.2 | 12.9 | 0.00 | 2.79 | 1.02 | 87 | 1011.8 |
| 20260506133027 | 7 | 345 | 1.6 | 14.5 | 0.03 | 2.79 | 1.02 | 87 | 1011.7 |
| 20260506132508 | 7 | 9 | 4.8 | 14.5 | 0.03 | 2.79 | 1.02 | 88 | 1011.8 |
| 20260506132013 | 7 | 340 | 3.2 | 9.7 | 0.03 | 2.79 | 1.02 | 89 | 1011.9 |
| 20260506131521 | 7 | 5 | 3.2 | 9.7 | 0.03 | 2.79 | 1.02 | 89 | 1011.8 |
| 20260506131007 | 7 | 345 | 4.8 | 8.0 | 0.03 | 2.79 | 1.02 | 89 | 1011.8 |
| 20260506130507 | 7 | 293 | 3.2 | 8.0 | 0.03 | 2.79 | 1.02 | 89 | 1011.7 |
| 20260506130024 | 7 | 327 | 1.6 | 8.0 | 0.03 | 2.79 | 1.02 | 90 | 1011.7 |
| 20260506125509 | 7 | 300 | 1.6 | 6.4 | 0.03 | 2.79 | 1.02 | 90 | 1011.7 |
| 20260506125008 | 6 | 299 | 1.6 | 8.0 | 0.03 | 2.79 | 1.02 | 90 | 1011.5 |
| 20260506124527 | 6 | 15 | 1.6 | 8.0 | 0.03 | 2.79 | 1.02 | 90 | 1011.4 |
| 20260506124007 | 6 | 5 | 3.2 | 9.7 | 0.03 | 2.79 | 1.02 | 90 | 1011.4 |
| 20260506123507 | 6 | 5 | 1.6 | 12.9 | 0.03 | 2.79 | 1.02 | 91 | 1011.5 |
| 20260506123027 | 6 | 350 | 3.2 | 12.9 | 0.00 | 2.77 | 0.99 | 91 | 1011.5 |
| 20260506122508 | 6 | 360 | 1.6 | 8.0 | 0.00 | 2.77 | 0.99 | 91 | 1011.4 |
| 20260506122011 | 6 | 325 | 1.6 | 8.0 | 0.00 | 2.77 | 0.99 | 91 | 1011.3 |
| 20260506121528 | 6 | 291 | 0.0 | 6.4 | 0.00 | 2.77 | 0.99 | 91 | 1011.4 |
| 20260506121004 | 6 | 312 | 1.6 | 4.8 | 0.00 | 2.77 | 0.99 | 91 | 1011.0 |
| 20260506120513 | 6 | 296 | 1.6 | 6.4 | 0.00 | 2.77 | 0.99 | 91 | 1011.0 |
| 20260506120021 | 6 | 336 | 3.2 | 8.0 | 0.00 | 2.77 | 0.99 | 91 | 1010.7 |
| 20260506115508 | 6 | 5 | 1.6 | 8.0 | 0.00 | 2.77 | 0.99 | 91 | 1010.5 |
| 20260506115007 | 6 | 134 | 3.2 | 8.0 | 0.00 | 2.77 | 0.99 | 91 | 1010.4 |
| 20260506114532 | 6 | 27 | 3.2 | 11.3 | 0.00 | 2.77 | 0.99 | 92 | 1010.2 |
| 20260506114008 | 6 | 10 | 4.8 | 11.3 | 0.00 | 2.77 | 0.99 | 92 | 1010.0 |
| 20260506113508 | 6 | 5 | 4.8 | 8.0 | 0.00 | 2.77 | 0.99 | 92 | 1010.0 |
| 20260506113032 | 6 | 9 | 1.6 | 6.4 | 0.00 | 2.77 | 0.99 | 92 | 1010.1 |
| 20260506112511 | 6 | 5 | 0.0 | 8.0 | 0.00 | 2.77 | 0.99 | 92 | 1010.3 |
| 20260506112015 | 6 | 352 | 1.6 | 8.0 | 0.00 | 2.77 | 0.99 | 92 | 1010.3 |
| 20260506111510 | 6 | 294 | 1.6 | 8.0 | 0.00 | 2.77 | 0.99 | 92 | 1010.5 |
| 20260506111006 | 6 | 15 | 3.2 | 11.3 | 0.00 | 2.77 | 0.99 | 92 | 1010.2 |
| 20260506110504 | 6 | 352 | 1.6 | 11.3 | 0.00 | 2.77 | 0.99 | 92 | 1010.0 |
| 20260506110016 | 6 | 224 | 3.2 | 8.0 | 0.00 | 2.79 | 0.99 | 92 | 1009.8 |
| 20260506105508 | 6 | 327 | 1.6 | 8.0 | 0.00 | 2.79 | 0.99 | 92 | 1009.9 |
| 20260506105005 | 6 | 16 | 1.6 | 11.3 | 0.00 | 2.79 | 0.99 | 92 | 1009.8 |
| 20260506104520 | 6 | 346 | 3.2 | 11.3 | 0.00 | 2.79 | 0.99 | 92 | 1009.5 |
| 20260506104007 | 6 | 350 | 1.6 | 9.7 | 0.00 | 2.79 | 0.99 | 92 | 1009.1 |
| 20260506103508 | 6 | 352 | 4.8 | 11.3 | 0.00 | 2.82 | 0.99 | 92 | 1009.1 |
| 20260506103032 | 6 | 12 | 3.2 | 11.3 | 0.00 | 2.82 | 0.99 | 92 | 1009.0 |
| 20260506102507 | 6 | 339 | 3.2 | 9.7 | 0.00 | 2.84 | 0.99 | 92 | 1009.2 |
| 20260506102011 | 6 | 319 | 3.2 | 9.7 | 0.00 | 2.84 | 0.99 | 93 | 1009.4 |
| 20260506101526 | 6 | 298 | 1.6 | 4.8 | 0.00 | 2.84 | 0.99 | 93 | 1009.5 |
| 20260506101006 | 6 | 329 | 1.6 | 4.8 | 0.00 | 2.84 | 0.99 | 93 | 1009.4 |
| 20260506100504 | 6 | 16 | 1.6 | 4.8 | 0.00 | 2.87 | 0.99 | 93 | 1009.3 |
| 20260506100023 | 6 | 5 | 1.6 | 3.2 | 0.00 | 2.87 | 0.99 | 93 | 1009.2 |
| 20260506095504 | 6 | 291 | 0.0 | 6.4 | 0.00 | 2.87 | 0.99 | 93 | 1009.1 |
| 20260506095002 | 6 | 342 | 1.6 | 6.4 | 0.00 | 2.90 | 0.99 | 93 | 1009.0 |
| 20260506094519 | 6 | 352 | 3.2 | 6.4 | 0.00 | 2.90 | 0.99 | 93 | 1008.7 |
| 20260506094004 | 6 | 5 | 1.6 | 6.4 | 0.00 | 2.90 | 0.99 | 93 | 1008.7 |
| 20260506093509 | 6 | 348 | 3.2 | 6.4 | 0.00 | 2.90 | 0.99 | 93 | 1008.4 |
| 20260506093024 | 6 | 20 | 0.0 | 9.7 | 0.00 | 2.92 | 0.99 | 93 | 1008.1 |
| 20260506092512 | 6 | 25 | 3.2 | 9.7 | 0.00 | 2.95 | 0.99 | 93 | 1008.1 |
| 20260506092014 | 6 | 21 | 3.2 | 6.4 | 0.00 | 2.95 | 0.99 | 93 | 1008.5 |
| 20260506091528 | 6 | 28 | 3.2 | 6.4 | 0.03 | 2.97 | 0.99 | 93 | 1008.7 |
| 20260506091008 | 6 | 18 | 1.6 | 6.4 | 0.03 | 3.05 | 0.99 | 93 | 1008.8 |
| 20260506090510 | 6 | 346 | 3.2 | 12.9 | 0.05 | 3.10 | 0.99 | 93 | 1008.7 |
| 20260506090028 | 6 | 13 | 4.8 | 16.1 | 0.05 | 3.10 | 0.99 | 93 | 1008.2 |
| 20260506085507 | 6 | 9 | 6.4 | 16.1 | 0.08 | 3.10 | 0.99 | 93 | 1008.4 |
| 20260506085004 | 6 | 9 | 9.7 | 16.1 | 0.10 | 3.10 | 0.99 | 93 | 1008.7 |
| 20260506084517 | 6 | 5 | 4.8 | 11.3 | 0.13 | 3.10 | 0.99 | 93 | 1008.6 |
| 20260506084006 | 6 | 338 | 6.4 | 16.1 | 0.15 | 3.10 | 0.99 | 93 | 1008.6 |
| 20260506083511 | 6 | 352 | 4.8 | 16.1 | 0.15 | 3.10 | 0.99 | 93 | 1008.7 |
| 20260506083022 | 6 | 5 | 3.2 | 14.5 | 0.18 | 3.10 | 0.99 | 93 | 1008.6 |
| 20260506082506 | 6 | 9 | 8.0 | 14.5 | 0.20 | 3.10 | 0.99 | 93 | 1008.4 |
| 20260506082011 | 6 | 61 | 6.4 | 12.9 | 0.20 | 3.10 | 0.99 | 93 | 1008.5 |
| 20260506081528 | 6 | 5 | 4.8 | 12.9 | 0.18 | 3.07 | 0.97 | 93 | 1008.4 |
| 20260506081008 | 6 | 13 | 6.4 | 16.1 | 0.18 | 3.07 | 0.97 | 93 | 1008.5 |
| 20260506080506 | 6 | 17 | 3.2 | 16.1 | 0.15 | 3.05 | 0.94 | 93 | 1008.6 |
| 20260506073510 | 6 | 347 | 3.2 | 14.5 | 0.10 | 2.95 | 0.84 | 93 | 1008.4 |
| 20260506073019 | 6 | 20 | 3.2 | 12.9 | 0.08 | 2.92 | 0.81 | 93 | 1008.5 |
| 20260506072507 | 6 | 324 | 1.6 | 12.9 | 0.05 | 2.90 | 0.79 | 93 | 1008.5 |
| 20260506072008 | 6 | 360 | 4.8 | 14.5 | 0.08 | 2.90 | 0.79 | 93 | 1008.4 |
| 20260506071523 | 7 | 275 | 3.2 | 14.5 | 0.10 | 2.90 | 0.79 | 93 | 1008.3 |
| 20260506071008 | 6 | 21 | 4.8 | 14.5 | 0.13 | 2.90 | 0.79 | 93 | 1008.2 |
| 20260506070505 | 6 | 13 | 4.8 | 14.5 | 0.15 | 2.90 | 0.79 | 92 | 1008.0 |
| 20260506062507 | 7 | 348 | 6.4 | 14.5 | 0.30 | 2.84 | 0.74 | 92 | 1007.8 |
| 20260506062004 | 7 | 360 | 6.4 | 16.1 | 0.30 | 2.82 | 0.71 | 92 | 1007.9 |
| 20260506061532 | 7 | 19 | 8.0 | 17.7 | 0.30 | 2.79 | 0.69 | 92 | 1007.9 |
| 20260506061006 | 7 | 11 | 8.0 | 20.9 | 0.30 | 2.77 | 0.66 | 92 | 1008.1 |
| 20260506060506 | 7 | 28 | 9.7 | 20.9 | 0.30 | 2.74 | 0.64 | 92 | 1008.4 |
| 20260506051009 | 8 | 336 | 8.0 | 16.1 | 0.36 | 2.46 | 0.36 | 92 | 1008.4 |
| 20260506050508 | 8 | 352 | 4.8 | 17.7 | 0.33 | 2.44 | 0.33 | 92 | 1008.3 |
| 20260506045004 | 8 | 360 | 3.2 | 17.7 | 0.25 | 2.36 | 0.25 | 92 | 1008.2 |
| 20260506044505 | 8 | 250 | 4.8 | 17.7 | 0.23 | 2.34 | 0.23 | 92 | 1008.1 |
| 20260506044005 | 8 | 19 | 4.8 | 12.9 | 0.20 | 2.31 | 0.20 | 92 | 1008.0 |
| 20260506043503 | 8 | 14 | 4.8 | 12.9 | 0.20 | 2.31 | 0.20 | 92 | 1008.1 |
| 20260506043014 | 8 | 360 | 4.8 | 14.5 | 0.18 | 2.29 | 0.18 | 92 | 1008.1 |
| 20260506042504 | 9 | 16 | 6.4 | 14.5 | 0.15 | 2.26 | 0.15 | 92 | 1008.2 |
| 20260506042008 | 9 | 15 | 4.8 | 9.7 | 0.08 | 2.18 | 0.08 | 92 | 1008.3 |
| 20260506041516 | 9 | 360 | 3.2 | 14.5 | 0.05 | 2.16 | 0.05 | 92 | 1008.2 |
| 20260506041003 | 9 | 348 | 4.8 | 14.5 | 0.00 | 2.11 | 0.00 | 92 | 1008.2 |
| 20260506040508 | 9 | 346 | 4.8 | 6.4 | 0.03 | 2.11 | 0.00 | 92 | 1008.0 |
| 20260506040025 | 9 | 360 | 3.2 | 11.3 | 0.03 | 2.11 | 0.00 | 92 | 1007.9 |
| 20260506035508 | 9 | 15 | 4.8 | 11.3 | 0.03 | 2.11 | 2.11 | 92 | 1007.8 |
| 20260506035008 | 9 | 36 | 4.8 | 8.0 | 0.03 | 2.11 | 2.11 | 92 | 1007.8 |
| 20260506034507 | 9 | 49 | 4.8 | 9.7 | 0.05 | 2.11 | 2.11 | 92 | 1007.9 |
| 20260506034003 | 9 | 352 | 6.4 | 17.7 | 0.05 | 2.11 | 2.11 | 92 | 1007.8 |
| 20260506033504 | 9 | 11 | 8.0 | 17.7 | 0.08 | 2.11 | 2.11 | 92 | 1007.7 |
| 20260506033014 | 9 | 20 | 8.0 | 16.1 | 0.08 | 2.11 | 2.11 | 92 | 1007.7 |